Salem, OR

3:06 PM PDT on June 20, 2018 (GMT -0700)
McNary

Weather History for KSLE - December, 2017

Change the Weather History Date:

Thursday, December 7, 2017

  Actual Average Record
Temperature  
Mean Temperature 41 °F 41 °F  
Max Temperature 53 °F 47 °F 61 °F (1938)
Min Temperature 29 °F 35 °F -4 °F (1972)
Degree Days  
Heating Degree Days 24 24  
Month to date heating degree days 151 165  
Since 1 July heating degree days 1083 1282  
Cooling Degree Days 0 0  
Month to date cooling degree days 0 0  
Year to date cooling degree days 647 290  
Moisture  
Dew Point 28 °F    
Average Humidity 63    
Maximum Humidity 85    
Minimum Humidity 41    
Precipitation  
Precipitation 0.00 in 0.24 in 1.86 in (2015)
Month to date precipitation 0.66 1.70  
Year to date precipitation 48.49 34.51  
Sea Level Pressure  
Sea Level Pressure 30.50 in    
Wind  
Wind Speed 4 mph (NNW)    
Max Wind Speed 10 mph    
Max Gust Speed 12 mph    
Visibility 10 miles    
Events      
T = Trace of Precipitation, MM = Missing Value Source: NWS Daily Summary

Daily Weather History Graph

Daily Weather History Graph

Search for Another Location

Airport or City:

Astronomy

Dec. 07, 2017 Rise Set
Actual Time 7:36 AM PST 4:30 PM PST
Civil Twilight 7:03 AM PST 5:04 PM PST
Nautical Twilight 6:26 AM PST 5:41 PM PST
Astronomical Twilight 5:50 AM PST 6:16 PM PST
Moon 9:29 PM PST (12/7) 11:15 AM PST (12/7)
Length of Visible Light 10h 01m
Length of Day
8h 54m
Waning Gibbous, 77% of the Moon is Illuminated
Dec 7
Waning Gibbous
Dec 9
Last Quarter
Dec 17
New
Dec 26
First Quarter
Jan 1
Full

Hourly Weather History & Observations

Time (PST) Temp. Windchill Dew Point Humidity Pressure Visibility Wind Dir Wind Speed Gust Speed Precip Events Conditions
12:56 AM 37.9 °F 33.5 °F 27.0 °F 65% 30.47 in 10.0 mi NNW 5.8 mph - N/A   Clear
1:56 AM 37.9 °F 34.4 °F 27.0 °F 65% 30.47 in 10.0 mi NNW 4.6 mph - N/A   Clear
2:56 AM 37.0 °F 32.4 °F 26.1 °F 65% 30.47 in 10.0 mi NNW 5.8 mph - N/A   Clear
3:56 AM 36.0 °F - 27.0 °F 70% 30.47 in 10.0 mi Calm Calm - N/A   Clear
4:56 AM 32.0 °F - 26.1 °F 79% 30.48 in 10.0 mi Calm Calm - N/A   Clear
5:56 AM 30.0 °F - 25.0 °F 82% 30.49 in 10.0 mi Calm Calm - N/A   Clear
6:56 AM 28.9 °F 25.2 °F 25.0 °F 85% 30.50 in 10.0 mi SW 3.5 mph - N/A   Clear
7:56 AM 30.9 °F - 26.1 °F 82% 30.51 in 10.0 mi Calm Calm - N/A   Clear
8:56 AM 36.0 °F 33.3 °F 30.9 °F 82% 30.52 in 10.0 mi WNW 3.5 mph - N/A   Clear
9:56 AM 44.1 °F 40.8 °F 30.0 °F 58% 30.53 in 10.0 mi North 5.8 mph - N/A   Clear
10:56 AM 46.9 °F - 28.9 °F 50% 30.52 in 10.0 mi NNE 5.8 mph - N/A   Clear
11:56 AM 48.9 °F - 28.9 °F 46% 30.50 in 10.0 mi North 5.8 mph - N/A   Clear
12:56 PM 51.1 °F - 30.0 °F 44% 30.48 in 10.0 mi North 8.1 mph - N/A   Clear
1:56 PM 53.1 °F - 30.9 °F 43% 30.46 in 10.0 mi North 4.6 mph - N/A   Clear
2:56 PM 53.1 °F - 32.0 °F 45% 30.47 in 10.0 mi North 8.1 mph - N/A   Clear
3:56 PM 50.0 °F - 30.9 °F 48% 30.48 in 10.0 mi North 5.8 mph - N/A   Clear
4:56 PM 45.0 °F 42.6 °F 30.0 °F 56% 30.49 in 10.0 mi North 4.6 mph - N/A   Clear
5:56 PM 42.1 °F 38.4 °F 28.0 °F 58% 30.51 in 10.0 mi NNE 5.8 mph - N/A   Clear
6:56 PM 37.9 °F 35.5 °F 28.0 °F 68% 30.53 in 10.0 mi NW 3.5 mph - N/A   Clear
7:56 PM 34.0 °F - 28.0 °F 79% 30.53 in 10.0 mi Calm Calm - N/A   Clear
8:56 PM 32.0 °F - 28.0 °F 85% 30.53 in 10.0 mi Calm Calm - N/A   Clear
9:56 PM 32.0 °F 28.7 °F 27.0 °F 82% 30.54 in 10.0 mi NW 3.5 mph - N/A   Clear
10:56 PM 32.0 °F 28.7 °F 27.0 °F 82% 30.54 in 10.0 mi WNW 3.5 mph - N/A   Clear
11:56 PM 30.9 °F - 26.1 °F 82% 30.55 in 10.0 mi Calm Calm - N/A   Clear